Daviess Cnty AP, Washington,, IN

5:08 PM EST on December 07, 2019 (GMT -0500)
Daviess County

Weather History for KDCY - May, 2019

Change the Weather History Date:

Sunday, May 26, 2019

  Actual Average (KLWV) Record (KLWV)
Temperature  
Mean Temperature 76 °F -  
Max Temperature 85 °F 74 °F 93 °F (2012)
Min Temperature 68 °F 55 °F 45 °F (1992)
Cooling Degree Days 12    
Growing Degree Days 26 (Base 50)    
Moisture  
Dew Point 68 °F    
Average Humidity 79    
Maximum Humidity 99    
Minimum Humidity 53    
Precipitation  
Precipitation 0.21 in - - ()
Sea Level Pressure  
Sea Level Pressure 30.04 in    
Wind  
Wind Speed 6 mph (SW)    
Max Wind Speed 18 mph    
Max Gust Speed 32 mph    
Visibility 10 miles    
Events Rain , Thunderstorm    
Averages and records for this station are not official NWS values.
T = Trace of Precipitation, MM = Missing Value Source: NWS Daily Summary

Daily Weather History Graph

Daily Weather History Graph

Search for Another Location

Airport or City:

Astronomy

May. 26, 2019 Rise Set
Actual Time 6:28 AM EDT 9:02 PM EDT
Civil Twilight 5:57 AM EDT 9:33 PM EDT
Nautical Twilight 5:19 AM EDT 10:12 PM EDT
Astronomical Twilight 4:36 AM EDT 10:55 PM EDT
Moon 2:36 AM EDT (5/26) 1:24 PM EDT (5/26)
Length of Visible Light 15h 35m
Length of Day
14h 34m
Waning Gibbous, 50% of the Moon is Illuminated
May 26
Waning Gibbous
May 26
Last Quarter
Jun 3
New
Jun 10
First Quarter
Jun 17
Full

Hourly Weather History & Observations

Time (EDT) Temp. Heat Index Dew Point Humidity Pressure Visibility Wind Dir Wind Speed Gust Speed Precip Events Conditions
12:15 AM 74.8 °F - 68.2 °F 80% 30.03 in 10.0 mi SSW 8.1 mph - N/A   Clear
12:35 AM 73.6 °F - 68.4 °F 84% 30.03 in 10.0 mi SSW 6.9 mph - N/A   Clear
12:55 AM 73.8 °F - 68.4 °F 83% 30.03 in 10.0 mi South 6.9 mph - N/A   Clear
1:15 AM 74.1 °F - 68.2 °F 82% 30.03 in 10.0 mi SSW 8.1 mph - N/A   Clear
1:35 AM 73.9 °F - 68.0 °F 82% 30.03 in 10.0 mi SSW 6.9 mph - N/A   Clear
1:55 AM 73.8 °F - 68.0 °F 82% 30.03 in 10.0 mi SSW 8.1 mph - N/A   Clear
2:15 AM 73.8 °F - 68.0 °F 82% 30.03 in 10.0 mi SSW 8.1 mph - N/A   Clear
2:35 AM 73.4 °F - 67.6 °F 82% 30.03 in 10.0 mi SSW 8.1 mph - N/A   Clear
2:55 AM 73.4 °F - 67.6 °F 82% 30.03 in 10.0 mi SSW 8.1 mph - N/A   Clear
3:15 AM 73.0 °F - 67.6 °F 83% 30.03 in 10.0 mi SSW 8.1 mph - N/A   Clear
3:35 AM 72.9 °F - 67.6 °F 84% 30.03 in 10.0 mi SSW 6.9 mph - N/A   Clear
3:55 AM 72.5 °F - 67.6 °F 85% 30.03 in 10.0 mi SSW 5.8 mph - N/A   Clear
4:15 AM 71.8 °F - 68.0 °F 88% 30.03 in 10.0 mi SSW 5.8 mph - N/A   Clear
4:35 AM 72.5 °F - 67.6 °F 85% 30.03 in 10.0 mi SW 5.8 mph - N/A   Clear
4:55 AM 73.0 °F - 67.1 °F 82% 30.04 in 10.0 mi SW 6.9 mph - N/A   Clear
5:15 AM 73.0 °F - 67.1 °F 82% 30.04 in 10.0 mi SSW 6.9 mph - N/A   Scattered Clouds
5:35 AM 73.4 °F - 67.1 °F 81% 30.05 in 10.0 mi SW 6.9 mph - N/A   Overcast
5:55 AM 73.8 °F - 66.9 °F 79% 30.05 in 10.0 mi West 8.1 mph - N/A   Overcast
6:15 AM 72.5 °F - 67.1 °F 83% 30.05 in 10.0 mi West 6.9 mph - N/A   Overcast
6:35 AM 71.6 °F - 67.1 °F 86% 30.06 in 10.0 mi WNW 4.6 mph - N/A   Mostly Cloudy
6:55 AM 71.6 °F - 67.1 °F 86% 30.06 in 10.0 mi Calm Calm - N/A   Mostly Cloudy
7:15 AM 70.2 °F - 70.0 °F 99% 30.06 in 10.0 mi Calm Calm - N/A   Scattered Clouds
7:35 AM 70.5 °F - 70.2 °F 99% 30.06 in 10.0 mi SSW 3.5 mph - N/A   Clear
7:55 AM 71.8 °F - 70.7 °F 96% 30.06 in 10.0 mi Calm Calm - N/A   Scattered Clouds
8:15 AM 72.7 °F - 70.0 °F 91% 30.07 in 10.0 mi Calm Calm - N/A   Scattered Clouds
8:35 AM 74.1 °F - 66.2 °F 76% 30.07 in 10.0 mi Calm Calm - N/A   Scattered Clouds
8:55 AM 75.0 °F - 65.3 °F 72% 30.06 in 10.0 mi Calm Calm - N/A   Scattered Clouds
9:15 AM 75.6 °F - 66.2 °F 73% 30.06 in 10.0 mi Calm Calm - N/A   Clear
9:35 AM 76.6 °F - 67.1 °F 72% 30.06 in 10.0 mi Calm Calm - N/A   Clear
9:55 AM 77.4 °F - 68.2 °F 73% 30.06 in 10.0 mi SSE 3.5 mph - N/A   Clear
10:15 AM 78.3 °F - 68.0 °F 71% 30.05 in 10.0 mi SSE 5.8 mph - N/A   Clear
10:35 AM 79.0 °F - 66.7 °F 66% 30.05 in 10.0 mi South 4.6 mph - N/A   Clear
10:55 AM 79.9 °F - 68.2 °F 67% 30.05 in 10.0 mi South 4.6 mph - N/A   Clear
11:15 AM 81.3 °F 84.0 °F 67.5 °F 63% 30.05 in 10.0 mi South 4.6 mph - N/A   Clear
11:35 AM 81.9 °F 84.6 °F 67.8 °F 62% 30.05 in 10.0 mi South 6.9 mph - N/A   Scattered Clouds
11:55 AM 82.6 °F 85.5 °F 67.8 °F 61% 30.05 in 10.0 mi South 5.8 mph - N/A   Scattered Clouds
12:15 PM 82.0 °F 84.9 °F 67.8 °F 62% 30.05 in 10.0 mi SW 9.2 mph - N/A   Scattered Clouds
12:35 PM 82.6 °F 85.7 °F 68.4 °F 62% 30.04 in 10.0 mi SW 8.1 mph - N/A   Mostly Cloudy
12:55 PM 83.8 °F 87.0 °F 68.0 °F 59% 30.03 in 10.0 mi SSW 8.1 mph - N/A   Scattered Clouds
1:15 PM 84.0 °F 86.8 °F 67.3 °F 57% 30.02 in 10.0 mi SW 10.4 mph - N/A   Clear
1:35 PM 85.3 °F 88.2 °F 67.6 °F 55% 30.01 in 10.0 mi WSW 4.6 mph - N/A   Scattered Clouds
1:55 PM 85.8 °F 88.5 °F 66.7 °F 53% 30.02 in 10.0 mi SW 9.2 mph 16.1 mph N/A   Scattered Clouds
2:15 PM 83.5 °F 86.0 °F 66.7 °F 57% 30.01 in 10.0 mi SSW 9.2 mph - N/A   Mostly Cloudy
2:35 PM 71.6 °F - 69.1 °F 92% 30.04 in 1.8 mi WSW 18.4 mph 32.2 mph 0.17 in Rain Rain
2:55 PM 68.9 °F - 66.2 °F 91% 30.04 in 5.0 mi West 12.7 mph 23.0 mph 0.20 in Rain , Thunderstorm Light Thunderstorms and Rain
3:15 PM 72.3 °F - 66.7 °F 83% 30.03 in 10.0 mi WNW 8.1 mph - N/A   Mostly Cloudy
3:35 PM 75.2 °F - 69.3 °F 82% 30.03 in 10.0 mi West 9.2 mph - N/A   Scattered Clouds
3:55 PM 75.6 °F - 69.3 °F 81% 30.03 in 10.0 mi West 5.8 mph - N/A   Scattered Clouds
4:15 PM 75.9 °F - 68.9 °F 79% 30.03 in 10.0 mi WSW 5.8 mph - N/A   Mostly Cloudy
4:35 PM 76.1 °F - 69.1 °F 79% 30.03 in 10.0 mi WSW 6.9 mph - N/A   Overcast
4:55 PM 76.6 °F - 68.5 °F 76% 30.03 in 10.0 mi SW 6.9 mph - N/A   Scattered Clouds
5:15 PM 78.1 °F - 68.7 °F 73% 30.02 in 10.0 mi SW 8.1 mph - N/A   Scattered Clouds
5:35 PM 78.1 °F - 69.1 °F 74% 30.02 in 10.0 mi SW 5.8 mph - N/A   Mostly Cloudy
5:55 PM 79.3 °F - 68.7 °F 70% 30.02 in 10.0 mi West 5.8 mph - N/A   Scattered Clouds
6:15 PM 79.3 °F - 69.3 °F 71% 30.01 in 10.0 mi WSW 8.1 mph - 0.01 in   Clear
6:35 PM 79.0 °F - 69.3 °F 72% 30.01 in 10.0 mi WSW 6.9 mph - 0.01 in   Scattered Clouds
6:55 PM 78.8 °F - 69.8 °F 74% 30.01 in 10.0 mi WSW 6.9 mph - 0.01 in   Scattered Clouds
7:15 PM 78.1 °F - 70.0 °F 76% 30.01 in 10.0 mi WSW 6.9 mph - N/A   Clear
7:35 PM 77.7 °F - 69.8 °F 76% 30.01 in 10.0 mi SW 5.8 mph - N/A   Scattered Clouds
7:55 PM 77.0 °F - 70.0 °F 79% 30.01 in 10.0 mi SW 4.6 mph - N/A   Scattered Clouds
8:15 PM 76.8 °F - 70.3 °F 80% 30.01 in 10.0 mi SW 4.6 mph - N/A   Scattered Clouds
8:35 PM 75.7 °F - 70.7 °F 84% 30.01 in 10.0 mi WSW 3.5 mph - N/A   Scattered Clouds
8:55 PM 74.8 °F - 71.4 °F 89% 30.02 in 10.0 mi SW 4.6 mph - N/A   Scattered Clouds
9:15 PM 73.6 °F - 73.0 °F 98% 30.02 in 10.0 mi West 4.6 mph - N/A   Clear
9:35 PM 74.8 °F - 70.2 °F 85% 30.02 in 10.0 mi NNW 5.8 mph - N/A   Clear
9:55 PM 73.0 °F - 68.0 °F 84% 30.03 in 10.0 mi North 4.6 mph - N/A   Clear
10:15 PM 72.5 °F - 68.4 °F 87% 30.04 in 10.0 mi NNE 3.5 mph - N/A   Clear
10:35 PM 71.6 °F - 67.8 °F 88% 30.04 in 10.0 mi Calm Calm - N/A   Clear
10:50 PM 71.4 °F - 68.4 °F 90% 30.04 in 10.0 mi Calm Calm - N/A   Clear
11:15 PM 70.2 °F - 70.0 °F 99% 30.05 in 10.0 mi Calm Calm - N/A   Clear
11:35 PM 68.9 °F - 68.5 °F 99% 30.05 in 10.0 mi Calm Calm - N/A   Clear
11:55 PM 68.0 °F - 67.6 °F 99% 30.05 in 10.0 mi Calm Calm - N/A   Clear